| time (UTC) | temp C | wind direction | speed KPH | gust KPH | rain 1hr cm | rain 24hr cm | rain mn cm | humidity % | barometer mb |
| 20260906205548 | 33 | 106 | 24.1 | 35.4 | 0.00 | 0.00 | 0.00 | 37 | 1011.5 |
| 20260906205047 | 34 | 101 | 22.5 | 33.8 | 0.00 | 0.00 | 0.00 | 37 | 1011.7 |
| 20260906204556 | 34 | 109 | 19.3 | 33.8 | 0.00 | 0.00 | 0.00 | 37 | 1011.7 |
| 20260906204049 | 34 | 135 | 17.7 | 29.0 | 0.00 | 0.00 | 0.00 | 37 | 1011.7 |
| 20260906203548 | 34 | 117 | 19.3 | 29.0 | 0.00 | 0.00 | 0.00 | 38 | 1011.8 |
| 20260906203059 | 33 | 133 | 19.3 | 38.6 | 0.00 | 0.00 | 0.00 | 37 | 1011.9 |
| 20260906202547 | 33 | 135 | 16.1 | 38.6 | 0.00 | 0.00 | 0.00 | 38 | 1011.8 |
| 20260906202047 | 33 | 112 | 19.3 | 37.0 | 0.00 | 0.00 | 0.00 | 38 | 1012.0 |
| 20260906201602 | 33 | 130 | 25.7 | 37.0 | 0.00 | 0.00 | 0.00 | 37 | 1012.1 |
| 20260906201047 | 33 | 145 | 24.1 | 41.8 | 0.00 | 0.00 | 0.00 | 36 | 1012.1 |
| 20260906200547 | 33 | 128 | 17.7 | 41.8 | 0.00 | 0.00 | 0.00 | 37 | 1012.1 |
| 20260906200057 | 33 | 108 | 27.4 | 41.8 | 0.00 | 0.00 | 0.00 | 36 | 1012.2 |
| 20260906195546 | 33 | 99 | 20.9 | 40.2 | 0.00 | 0.00 | 0.00 | 37 | 1012.0 |
| 20260906195047 | 33 | 132 | 19.3 | 40.2 | 0.00 | 0.00 | 0.00 | 37 | 1012.2 |
| 20260906194556 | 33 | 132 | 25.7 | 40.2 | 0.00 | 0.00 | 0.00 | 37 | 1012.3 |
| 20260906194054 | 33 | 98 | 20.9 | 41.8 | 0.00 | 0.00 | 0.00 | 39 | 1012.4 |
| 20260906193547 | 33 | 154 | 24.1 | 41.8 | 0.00 | 0.00 | 0.00 | 38 | 1012.4 |
| 20260906193104 | 33 | 117 | 24.1 | 37.0 | 0.00 | 0.00 | 0.00 | 38 | 1012.5 |
| 20260906192553 | 33 | 116 | 24.1 | 37.0 | 0.00 | 0.00 | 0.00 | 38 | 1012.4 |
| 20260906192048 | 33 | 141 | 22.5 | 30.6 | 0.00 | 0.00 | 0.00 | 38 | 1012.6 |
| 20260906191611 | 32 | 140 | 19.3 | 32.2 | 0.00 | 0.00 | 0.00 | 37 | 1012.7 |
| 20260906191051 | 33 | 123 | 20.9 | 33.8 | 0.00 | 0.00 | 0.00 | 38 | 1012.8 |
| 20260906190852 | 33 | 116 | 22.5 | 33.8 | 0.00 | 0.00 | 0.00 | 37 | 1012.9 |
| 20260906185547 | 33 | 109 | 19.3 | 32.2 | 0.00 | 0.20 | 0.00 | 36 | 1013.0 |
| 20260906185048 | 33 | 112 | 19.3 | 32.2 | 0.00 | 0.20 | 0.00 | 36 | 1013.0 |
| 20260906184604 | 32 | 117 | 16.1 | 37.0 | 0.00 | 0.20 | 0.00 | 37 | 1013.0 |
| 20260906184048 | 32 | 90 | 19.3 | 37.0 | 0.00 | 0.20 | 0.00 | 38 | 1013.1 |
| 20260906183548 | 32 | 115 | 16.1 | 27.4 | 0.00 | 0.20 | 0.00 | 38 | 1013.2 |
| 20260906183104 | 32 | 103 | 16.1 | 25.7 | 0.00 | 0.20 | 0.00 | 38 | 1013.3 |
| 20260906182550 | 32 | 137 | 17.7 | 33.8 | 0.00 | 0.20 | 0.00 | 39 | 1013.4 |
| 20260906182049 | 32 | 158 | 11.3 | 35.4 | 0.00 | 0.20 | 0.00 | 40 | 1013.4 |
| 20260906181603 | 32 | 154 | 17.7 | 35.4 | 0.00 | 0.20 | 0.00 | 40 | 1013.6 |
| 20260906181047 | 31 | 163 | 16.1 | 33.8 | 0.00 | 0.20 | 0.00 | 40 | 1013.7 |
| 20260906180547 | 31 | 147 | 19.3 | 32.2 | 0.00 | 0.20 | 0.00 | 39 | 1013.9 |
| 20260906180113 | 31 | 121 | 17.7 | 25.7 | 0.00 | 0.20 | 0.00 | 40 | 1014.1 |
| 20260906175552 | 31 | 138 | 17.7 | 29.0 | 0.00 | 0.20 | 0.00 | 40 | 1014.1 |
| 20260906175047 | 31 | 119 | 16.1 | 29.0 | 0.00 | 0.20 | 0.00 | 41 | 1014.1 |
| 20260906174556 | 31 | 179 | 19.3 | 29.0 | 0.00 | 0.20 | 0.00 | 40 | 1014.1 |
| 20260906174048 | 31 | 135 | 16.1 | 29.0 | 0.00 | 0.20 | 0.00 | 39 | 1014.3 |
| 20260906173551 | 31 | 159 | 14.5 | 32.2 | 0.00 | 0.20 | 0.00 | 40 | 1014.3 |
| 20260906173055 | 31 | 182 | 16.1 | 32.2 | 0.00 | 0.20 | 0.00 | 40 | 1014.4 |
| 20260906172553 | 31 | 173 | 19.3 | 30.6 | 0.00 | 0.20 | 0.00 | 40 | 1014.6 |
| 20260906172047 | 30 | 126 | 19.3 | 30.6 | 0.00 | 0.20 | 0.00 | 41 | 1014.7 |
| 20260906171605 | 30 | 163 | 19.3 | 30.6 | 0.00 | 0.20 | 0.00 | 40 | 1014.7 |
| 20260906171047 | 30 | 137 | 19.3 | 30.6 | 0.00 | 0.20 | 0.00 | 41 | 1014.8 |
| 20260906170547 | 30 | 159 | 16.1 | 32.2 | 0.00 | 0.20 | 0.00 | 41 | 1014.9 |
| 20260906170058 | 30 | 126 | 17.7 | 32.2 | 0.00 | 0.20 | 0.00 | 41 | 1014.8 |
| 20260906165545 | 30 | 155 | 16.1 | 32.2 | 0.00 | 0.20 | 0.00 | 42 | 1014.8 |
| 20260906165048 | 30 | 138 | 16.1 | 24.1 | 0.00 | 0.20 | 0.00 | 42 | 1014.8 |
| 20260906164559 | 30 | 188 | 12.9 | 24.1 | 0.00 | 0.20 | 0.00 | 44 | 1014.8 |
| 20260906164046 | 30 | 228 | 16.1 | 29.0 | 0.00 | 0.20 | 0.00 | 43 | 1014.9 |
| 20260906163545 | 30 | 186 | 17.7 | 29.0 | 0.00 | 0.20 | 0.00 | 43 | 1014.9 |
| 20260906163114 | 30 | 145 | 17.7 | 32.2 | 0.00 | 0.20 | 0.00 | 43 | 1015.0 |
| 20260906162546 | 29 | 163 | 19.3 | 32.2 | 0.00 | 0.20 | 0.00 | 43 | 1015.1 |
| 20260906162045 | 29 | 148 | 16.1 | 27.4 | 0.00 | 0.20 | 0.00 | 44 | 1015.2 |
| 20260906161605 | 29 | 172 | 12.9 | 24.1 | 0.00 | 0.20 | 0.00 | 44 | 1015.2 |
| 20260906161048 | 28 | 187 | 16.1 | 24.1 | 0.00 | 0.20 | 0.00 | 45 | 1015.2 |
| 20260906160545 | 28 | 169 | 11.3 | 25.7 | 0.00 | 0.20 | 0.00 | 45 | 1015.2 |
| 20260906160059 | 28 | 197 | 12.9 | 25.7 | 0.00 | 0.20 | 0.00 | 46 | 1015.2 |
| 20260906155548 | 28 | 136 | 9.7 | 24.1 | 0.00 | 0.20 | 0.00 | 45 | 1015.0 |
| 20260906155045 | 28 | 194 | 14.5 | 24.1 | 0.00 | 0.20 | 0.00 | 45 | 1015.1 |
| 20260906154558 | 28 | 155 | 11.3 | 24.1 | 0.00 | 0.20 | 0.00 | 46 | 1015.1 |
| 20260906154046 | 27 | 157 | 11.3 | 19.3 | 0.00 | 0.20 | 0.00 | 48 | 1015.1 |
| 20260906153548 | 27 | 180 | 11.3 | 19.3 | 0.00 | 0.20 | 0.00 | 49 | 1015.1 |
| 20260906153118 | 27 | 166 | 9.7 | 19.3 | 0.00 | 0.20 | 0.00 | 53 | 1015.2 |
| 20260906152545 | 27 | 211 | 6.4 | 14.5 | 0.00 | 0.20 | 0.00 | 58 | 1015.2 |
| 20260906152045 | 26 | 165 | 6.4 | 12.9 | 0.00 | 0.20 | 0.00 | 58 | 1015.2 |
| 20260906151557 | 26 | 194 | 4.8 | 12.9 | 0.00 | 0.20 | 0.00 | 59 | 1015.3 |
| 20260906151045 | 26 | 203 | 6.4 | 12.9 | 0.00 | 0.20 | 0.00 | 62 | 1015.3 |
| 20260906150545 | 25 | 186 | 6.4 | 12.9 | 0.00 | 0.20 | 0.00 | 63 | 1015.4 |
| 20260906150100 | 25 | 184 | 6.4 | 12.9 | 0.00 | 0.20 | 0.00 | 65 | 1015.5 |
| 20260906145545 | 25 | 220 | 6.4 | 12.9 | 0.00 | 0.20 | 0.00 | 66 | 1015.5 |
| 20260906145049 | 24 | 208 | 6.4 | 14.5 | 0.00 | 0.20 | 0.00 | 67 | 1015.4 |
| 20260906144559 | 24 | 209 | 8.0 | 14.5 | 0.00 | 0.20 | 0.00 | 67 | 1015.5 |
| 20260906144048 | 23 | 173 | 6.4 | 11.3 | 0.00 | 0.20 | 0.00 | 69 | 1015.4 |
| 20260906143546 | 23 | 202 | 6.4 | 11.3 | 0.00 | 0.20 | 0.00 | 70 | 1015.6 |
| 20260906143058 | 23 | 192 | 6.4 | 11.3 | 0.00 | 0.20 | 0.00 | 71 | 1015.5 |
| 20260906142545 | 22 | 171 | 6.4 | 11.3 | 0.00 | 0.20 | 0.00 | 73 | 1015.5 |
| 20260906142046 | 22 | 150 | 4.8 | 9.7 | 0.00 | 0.20 | 0.00 | 77 | 1015.4 |
| 20260906141555 | 21 | 159 | 4.8 | 9.7 | 0.00 | 0.20 | 0.00 | 78 | 1015.3 |
| 20260906141045 | 21 | 178 | 4.8 | 8.0 | 0.00 | 0.20 | 0.00 | 80 | 1015.3 |
| 20260906140545 | 20 | 192 | 1.6 | 4.8 | 0.00 | 0.20 | 0.00 | 83 | 1015.2 |
| 20260906140107 | 20 | 215 | 1.6 | 4.8 | 0.00 | 0.20 | 0.00 | 85 | 1015.3 |
| 20260906135546 | 19 | 174 | 0.0 | 1.6 | 0.00 | 0.20 | 0.00 | 87 | 1015.3 |
| 20260906135045 | 18 | 0 | 0.0 | 1.6 | 0.00 | 0.20 | 0.00 | 87 | 1015.3 |
| 20260906134557 | 18 | 0 | 0.0 | 4.8 | 0.00 | 0.20 | 0.00 | 88 | 1015.3 |
| 20260906134046 | 18 | 308 | 0.0 | 4.8 | 0.00 | 0.20 | 0.00 | 89 | 1015.3 |
| 20260906133545 | 17 | 319 | 1.6 | 4.8 | 0.00 | 0.20 | 0.00 | 90 | 1015.3 |
| 20260906133121 | 17 | 291 | 1.6 | 4.8 | 0.00 | 0.20 | 0.00 | 90 | 1015.3 |
| 20260906132546 | 17 | 0 | 0.0 | 3.2 | 0.00 | 0.20 | 0.00 | 90 | 1015.3 |
| 20260906132046 | 17 | 0 | 0.0 | 3.2 | 0.00 | 0.20 | 0.00 | 91 | 1015.3 |
| 20260906131616 | 17 | 0 | 0.0 | 1.6 | 0.00 | 0.20 | 0.00 | 92 | 1015.4 |
| 20260906131045 | 16 | 0 | 0.0 | 1.6 | 0.00 | 0.20 | 0.00 | 92 | 1015.3 |
| 20260906130545 | 16 | 207 | 0.0 | 1.6 | 0.00 | 0.20 | 0.00 | 92 | 1015.3 |
| 20260906130109 | 16 | 0 | 0.0 | 0.0 | 0.00 | 0.20 | 0.00 | 92 | 1015.2 |
| 20260906125548 | 16 | 0 | 0.0 | 4.8 | 0.00 | 0.20 | 0.00 | 93 | 1015.2 |
| 20260906125051 | 15 | 0 | 0.0 | 6.4 | 0.00 | 0.20 | 0.00 | 92 | 1015.2 |
| 20260906124601 | 15 | 275 | 3.2 | 6.4 | 0.00 | 0.20 | 0.00 | 91 | 1015.0 |
| 20260906124048 | 15 | 245 | 1.6 | 6.4 | 0.00 | 0.20 | 0.00 | 90 | 1015.0 |
| 20260906123546 | 15 | 254 | 1.6 | 6.4 | 0.00 | 0.20 | 0.00 | 89 | 1014.8 |
| 20260906123057 | 16 | 252 | 1.6 | 6.4 | 0.00 | 0.20 | 0.00 | 90 | 1014.9 |
| 20260906122545 | 16 | 287 | 3.2 | 6.4 | 0.00 | 0.20 | 0.00 | 92 | 1014.8 |
| 20260906122045 | 15 | 286 | 3.2 | 6.4 | 0.00 | 0.20 | 0.00 | 90 | 1014.9 |
| 20260906121556 | 16 | 275 | 3.2 | 6.4 | 0.00 | 0.20 | 0.00 | 91 | 1014.8 |
| 20260906121045 | 16 | 265 | 1.6 | 6.4 | 0.00 | 0.20 | 0.00 | 91 | 1014.8 |
| 20260906120545 | 16 | 0 | 1.6 | 6.4 | 0.00 | 0.20 | 0.00 | 91 | 1014.8 |
| 20260906120105 | 15 | 250 | 3.2 | 6.4 | 0.00 | 0.20 | 0.00 | 91 | 1014.7 |
| 20260906115545 | 16 | 266 | 1.6 | 6.4 | 0.00 | 0.20 | 0.00 | 92 | 1014.8 |
| 20260906115049 | 15 | 266 | 1.6 | 6.4 | 0.00 | 0.20 | 0.00 | 92 | 1014.8 |
| 20260906114601 | 15 | 275 | 3.2 | 6.4 | 0.00 | 0.20 | 0.00 | 91 | 1014.7 |
| 20260906114047 | 15 | 275 | 3.2 | 6.4 | 0.00 | 0.20 | 0.00 | 91 | 1014.6 |
| 20260906113548 | 15 | 254 | 0.0 | 6.4 | 0.00 | 0.20 | 0.00 | 91 | 1014.7 |
| 20260906113102 | 15 | 0 | 0.0 | 6.4 | 0.00 | 0.20 | 0.00 | 92 | 1014.6 |
| 20260906112546 | 15 | 295 | 3.2 | 6.4 | 0.00 | 0.20 | 0.00 | 90 | 1014.7 |
| 20260906112045 | 15 | 264 | 4.8 | 6.4 | 0.00 | 0.20 | 0.00 | 90 | 1014.7 |
| 20260906111559 | 16 | 284 | 1.6 | 6.4 | 0.00 | 0.20 | 0.00 | 90 | 1014.8 |
| 20260906111045 | 16 | 279 | 1.6 | 4.8 | 0.00 | 0.20 | 0.00 | 90 | 1014.7 |
| 20260906110545 | 16 | 0 | 0.0 | 4.8 | 0.00 | 0.20 | 0.00 | 90 | 1014.6 |
| 20260906110100 | 16 | 277 | 1.6 | 4.8 | 0.00 | 0.20 | 0.00 | 89 | 1014.7 |
| 20260906105547 | 16 | 273 | 0.0 | 4.8 | 0.00 | 0.20 | 0.00 | 89 | 1014.6 |
| 20260906105046 | 16 | 0 | 0.0 | 4.8 | 0.00 | 0.20 | 0.00 | 89 | 1014.6 |
| 20260906104557 | 16 | 267 | 1.6 | 4.8 | 0.00 | 0.20 | 0.00 | 89 | 1014.5 |
| 20260906104047 | 16 | 273 | 0.0 | 4.8 | 0.00 | 0.20 | 0.00 | 89 | 1014.4 |
| 20260906103547 | 16 | 0 | 0.0 | 4.8 | 0.00 | 0.20 | 0.00 | 89 | 1014.5 |
| 20260906103059 | 16 | 269 | 3.2 | 4.8 | 0.00 | 0.20 | 0.00 | 88 | 1014.5 |
| 20260906102551 | 16 | 269 | 1.6 | 4.8 | 0.00 | 0.20 | 0.00 | 88 | 1014.4 |
| 20260906102047 | 16 | 270 | 1.6 | 11.3 | 0.00 | 0.20 | 0.00 | 88 | 1014.4 |
| 20260906101559 | 16 | 281 | 1.6 | 11.3 | 0.00 | 0.20 | 0.00 | 88 | 1014.3 |
| 20260906101047 | 17 | 284 | 6.4 | 11.3 | 0.00 | 0.20 | 0.00 | 87 | 1014.2 |
| 20260906100549 | 17 | 259 | 4.8 | 9.7 | 0.00 | 0.20 | 0.00 | 86 | 1014.2 |
| 20260906100111 | 17 | 288 | 4.8 | 9.7 | 0.00 | 0.20 | 0.00 | 88 | 1014.2 |
| 20260906095549 | 17 | 297 | 3.2 | 9.7 | 0.00 | 0.20 | 0.00 | 87 | 1014.2 |
| 20260906095047 | 17 | 287 | 3.2 | 9.7 | 0.00 | 0.20 | 0.00 | 86 | 1014.2 |
| 20260906094614 | 17 | 0 | 1.6 | 6.4 | 0.00 | 0.20 | 0.00 | 86 | 1014.2 |
| 20260906094047 | 18 | 275 | 1.6 | 11.3 | 0.00 | 0.20 | 0.00 | 84 | 1014.2 |
| 20260906093547 | 18 | 0 | 1.6 | 11.3 | 0.00 | 0.20 | 0.00 | 84 | 1014.2 |
| 20260906093105 | 18 | 288 | 6.4 | 9.7 | 0.00 | 0.20 | 0.00 | 84 | 1014.2 |
| 20260906092547 | 18 | 287 | 0.0 | 4.8 | 0.00 | 0.20 | 0.00 | 84 | 1014.0 |
| 20260906092047 | 18 | 0 | 0.0 | 0.0 | 0.00 | 0.20 | 0.00 | 82 | 1014.3 |
| 20260906091601 | 19 | 0 | 0.0 | 0.0 | 0.00 | 0.20 | 0.00 | 84 | 1014.3 |
| 20260906091050 | 19 | 0 | 0.0 | 0.0 | 0.00 | 0.20 | 0.00 | 84 | 1014.2 |
| 20260906090547 | 19 | 0 | 0.0 | 0.0 | 0.00 | 0.20 | 0.00 | 84 | 1014.2 |
| 20260906090122 | 19 | 0 | 0.0 | 0.0 | 0.00 | 0.20 | 0.00 | 83 | 1014.3 |
| 20260906085548 | 19 | 0 | 0.0 | 0.0 | 0.00 | 0.20 | 0.00 | 83 | 1014.3 |
| 20260906085049 | 19 | 0 | 0.0 | 0.0 | 0.00 | 0.20 | 0.00 | 83 | 1014.3 |
| 20260906084606 | 19 | 0 | 0.0 | 0.0 | 0.00 | 0.20 | 0.00 | 83 | 1014.2 |
| 20260906084047 | 19 | 0 | 0.0 | 0.0 | 0.00 | 0.20 | 0.00 | 83 | 1014.2 |
| 20260906083547 | 19 | 0 | 0.0 | 3.2 | 0.00 | 0.20 | 0.00 | 83 | 1014.1 |
| 20260906083102 | 19 | 0 | 0.0 | 3.2 | 0.00 | 0.20 | 0.00 | 83 | 1014.2 |
| 20260906082547 | 19 | 0 | 1.6 | 3.2 | 0.00 | 0.20 | 0.00 | 83 | 1014.2 |
| 20260906082049 | 20 | 251 | 0.0 | 4.8 | 0.00 | 0.20 | 0.00 | 83 | 1014.1 |
| 20260906081603 | 20 | 251 | 1.6 | 4.8 | 0.00 | 0.20 | 0.00 | 83 | 1014.1 |
| 20260906081046 | 20 | 251 | 3.2 | 4.8 | 0.00 | 0.20 | 0.00 | 83 | 1014.1 |
| 20260906080546 | 20 | 0 | 0.0 | 0.0 | 0.00 | 0.20 | 0.00 | 84 | 1014.0 |
| 20260906080103 | 20 | 0 | 0.0 | 0.0 | 0.00 | 0.20 | 0.00 | 84 | 1014.0 |
| 20260906075545 | 20 | 0 | 0.0 | 0.0 | 0.00 | 0.20 | 0.00 | 84 | 1013.9 |
| 20260906075047 | 20 | 0 | 0.0 | 3.2 | 0.00 | 0.20 | 0.00 | 84 | 1013.8 |
| 20260906074602 | 20 | 0 | 0.0 | 3.2 | 0.00 | 0.20 | 0.00 | 84 | 1013.9 |
| 20260906074049 | 19 | 0 | 0.0 | 4.8 | 0.00 | 0.20 | 0.00 | 84 | 1013.8 |
| 20260906073545 | 19 | 0 | 1.6 | 4.8 | 0.00 | 0.20 | 0.00 | 82 | 1013.8 |
| 20260906073057 | 20 | 260 | 0.0 | 4.8 | 0.00 | 0.20 | 0.00 | 81 | 1013.9 |
| 20260906072548 | 20 | 260 | 1.6 | 4.8 | 0.00 | 0.20 | 0.00 | 79 | 1013.9 |
| 20260906072048 | 20 | 272 | 1.6 | 4.8 | 0.00 | 0.20 | 0.00 | 78 | 1013.8 |
| 20260906071557 | 21 | 0 | 1.6 | 6.4 | 0.00 | 0.20 | 0.00 | 79 | 1013.8 |
| 20260906071048 | 21 | 265 | 1.6 | 6.4 | 0.00 | 0.20 | 0.00 | 78 | 1013.8 |
| 20260906070548 | 21 | 281 | 3.2 | 9.7 | 0.00 | 0.20 | 0.00 | 78 | 1013.7 |
| 20260906070104 | 21 | 294 | 1.6 | 9.7 | 0.00 | 0.20 | 0.00 | 79 | 1013.8 |
| 20260906065545 | 21 | 288 | 3.2 | 11.3 | 0.00 | 0.20 | 0.00 | 77 | 1013.8 |
| 20260906065045 | 21 | 0 | 4.8 | 11.3 | 0.00 | 0.20 | 0.00 | 78 | 1013.8 |
| 20260906064602 | 21 | 306 | 6.4 | 11.3 | 0.00 | 0.20 | 0.00 | 78 | 1013.7 |
| 20260906064045 | 21 | 270 | 4.8 | 6.4 | 0.00 | 0.20 | 0.00 | 78 | 1013.7 |
| 20260906063548 | 21 | 274 | 1.6 | 4.8 | 0.00 | 0.20 | 0.00 | 79 | 1013.7 |
| 20260906063058 | 21 | 0 | 0.0 | 3.2 | 0.00 | 0.20 | 0.00 | 79 | 1013.7 |
| 20260906062547 | 21 | 0 | 0.0 | 4.8 | 0.00 | 0.20 | 0.00 | 79 | 1013.8 |
| 20260906062048 | 21 | 0 | 0.0 | 4.8 | 0.00 | 0.20 | 0.00 | 77 | 1013.8 |
| 20260906061559 | 21 | 261 | 0.0 | 4.8 | 0.00 | 0.20 | 0.00 | 76 | 1013.8 |
| 20260906061049 | 22 | 0 | 0.0 | 6.4 | 0.00 | 0.20 | 0.00 | 75 | 1013.6 |
| 20260906060548 | 22 | 0 | 1.6 | 6.4 | 0.00 | 0.20 | 0.00 | 75 | 1013.7 |
| 20260906060106 | 22 | 287 | 1.6 | 6.4 | 0.00 | 0.20 | 0.00 | 76 | 1013.6 |
| 20260906055550 | 21 | 0 | 1.6 | 4.8 | 0.00 | 0.20 | 0.20 | 76 | 1013.6 |
| 20260906055046 | 22 | 0 | 1.6 | 6.4 | 0.00 | 0.20 | 0.20 | 75 | 1013.8 |
| 20260906054559 | 22 | 0 | 0.0 | 11.3 | 0.00 | 0.20 | 0.20 | 75 | 1013.7 |
| 20260906054048 | 22 | 317 | 4.8 | 14.5 | 0.00 | 0.20 | 0.20 | 77 | 1013.7 |
| 20260906053548 | 21 | 287 | 8.0 | 14.5 | 0.00 | 0.20 | 0.20 | 77 | 1013.6 |
| 20260906053057 | 21 | 282 | 3.2 | 8.0 | 0.00 | 0.20 | 0.20 | 78 | 1013.8 |
| 20260906052548 | 21 | 300 | 0.0 | 3.2 | 0.00 | 0.20 | 0.20 | 79 | 1013.8 |
| 20260906052045 | 21 | 302 | 0.0 | 3.2 | 0.00 | 0.20 | 0.20 | 79 | 1013.9 |
| 20260906051603 | 21 | 248 | 0.0 | 0.0 | 0.00 | 0.20 | 0.20 | 79 | 1014.0 |
| 20260906051046 | 21 | 0 | 0.0 | 4.8 | 0.00 | 0.20 | 0.20 | 78 | 1014.0 |
| 20260906050545 | 21 | 0 | 0.0 | 4.8 | 0.00 | 0.20 | 0.20 | 78 | 1013.9 |
| 20260906050101 | 21 | 208 | 1.6 | 4.8 | 0.00 | 0.20 | 0.20 | 78 | 1013.9 |
| 20260906045546 | 21 | 0 | 0.0 | 4.8 | 0.00 | 0.20 | 0.20 | 78 | 1013.6 |
| 20260906045045 | 21 | 253 | 1.6 | 4.8 | 0.00 | 0.20 | 0.20 | 78 | 1013.6 |
| 20260906044603 | 22 | 263 | 1.6 | 4.8 | 0.00 | 0.20 | 0.20 | 76 | 1013.4 |
| 20260906044044 | 22 | 0 | 0.0 | 0.0 | 0.00 | 0.20 | 0.20 | 75 | 1013.5 |
| 20260906043547 | 22 | 0 | 0.0 | 4.8 | 0.00 | 0.20 | 0.20 | 75 | 1013.6 |
| 20260906043056 | 22 | 0 | 1.6 | 4.8 | 0.00 | 0.20 | 0.20 | 75 | 1013.7 |
| 20260906042548 | 22 | 254 | 3.2 | 4.8 | 0.00 | 0.20 | 0.20 | 73 | 1013.6 |
| 20260906042048 | 23 | 264 | 1.6 | 6.4 | 0.00 | 0.20 | 0.20 | 70 | 1013.6 |
| 20260906041604 | 23 | 0 | 1.6 | 6.4 | 0.00 | 0.20 | 0.20 | 69 | 1013.6 |
| 20260906041050 | 23 | 287 | 3.2 | 6.4 | 0.00 | 0.20 | 0.20 | 69 | 1013.6 |
| 20260906040547 | 23 | 286 | 3.2 | 11.3 | 0.00 | 0.20 | 0.20 | 69 | 1013.6 |
| 20260906040104 | 24 | 248 | 3.2 | 11.3 | 0.00 | 0.20 | 0.20 | 66 | 1013.8 |
| 20260906035545 | 24 | 301 | 4.8 | 11.3 | 0.00 | 0.20 | 0.20 | 66 | 1013.8 |
| 20260906035058 | 24 | 300 | 4.8 | 6.4 | 0.00 | 0.20 | 0.20 | 67 | 1013.8 |
| 20260906034557 | 24 | 282 | 3.2 | 6.4 | 0.00 | 0.20 | 0.20 | 68 | 1013.8 |
| 20260906034046 | 23 | 273 | 3.2 | 6.4 | 0.00 | 0.20 | 0.20 | 67 | 1013.7 |
| 20260906033551 | 24 | 275 | 0.0 | 4.8 | 0.00 | 0.20 | 0.20 | 68 | 1013.7 |
| 20260906033101 | 24 | 265 | 1.6 | 6.4 | 0.00 | 0.20 | 0.20 | 66 | 1013.7 |
| 20260906032547 | 24 | 269 | 1.6 | 6.4 | 0.00 | 0.20 | 0.20 | 66 | 1013.6 |
| 20260906032048 | 24 | 298 | 1.6 | 6.4 | 0.00 | 0.20 | 0.20 | 66 | 1013.5 |
| 20260906031602 | 25 | 282 | 3.2 | 6.4 | 0.00 | 0.20 | 0.20 | 65 | 1013.5 |
| 20260906031047 | 26 | 250 | 3.2 | 4.8 | 0.00 | 0.20 | 0.20 | 63 | 1013.5 |
| 20260906030548 | 26 | 250 | 3.2 | 9.7 | 0.00 | 0.20 | 0.20 | 61 | 1013.4 |
| 20260906030055 | 27 | 203 | 3.2 | 9.7 | 0.00 | 0.20 | 0.20 | 59 | 1013.4 |
| 20260906025547 | 27 | 179 | 4.8 | 11.3 | 0.00 | 0.20 | 0.20 | 59 | 1013.5 |
| 20260906025045 | 27 | 194 | 4.8 | 11.3 | 0.00 | 0.20 | 0.20 | 58 | 1013.4 |
| 20260906024556 | 27 | 143 | 4.8 | 9.7 | 0.00 | 0.20 | 0.20 | 58 | 1013.4 |
| 20260906024048 | 27 | 173 | 4.8 | 9.7 | 0.00 | 0.20 | 0.20 | 57 | 1013.3 |
| 20260906023548 | 27 | 182 | 3.2 | 8.0 | 0.00 | 0.20 | 0.20 | 57 | 1013.2 |
| 20260906023103 | 28 | 194 | 3.2 | 14.5 | 0.00 | 0.20 | 0.20 | 56 | 1013.0 |
| 20260906022550 | 28 | 190 | 4.8 | 14.5 | 0.00 | 0.20 | 0.20 | 56 | 1013.0 |
| 20260906022048 | 28 | 165 | 9.7 | 16.1 | 0.00 | 0.20 | 0.20 | 56 | 1012.8 |
| 20260906021603 | 27 | 180 | 9.7 | 16.1 | 0.00 | 0.20 | 0.20 | 58 | 1012.7 |
| 20260906021050 | 26 | 202 | 4.8 | 11.3 | 0.00 | 0.20 | 0.20 | 60 | 1012.6 |
| 20260906020547 | 26 | 246 | 4.8 | 9.7 | 0.00 | 0.20 | 0.20 | 58 | 1012.3 |
| 20260906015548 | 27 | 284 | 4.8 | 8.0 | 0.00 | 0.20 | 0.20 | 55 | 1012.1 |
| 20260906015048 | 27 | 271 | 0.0 | 4.8 | 0.00 | 0.20 | 0.20 | 52 | 1012.0 |
| 20260906014611 | 27 | 0 | 0.0 | 8.0 | 0.00 | 0.20 | 0.20 | 53 | 1011.9 |
| 20260906014047 | 27 | 0 | 1.6 | 8.0 | 0.00 | 0.20 | 0.20 | 52 | 1011.8 |
| 20260906013550 | 27 | 242 | 3.2 | 9.7 | 0.00 | 0.20 | 0.20 | 53 | 1011.8 |
| 20260906013057 | 27 | 247 | 4.8 | 9.7 | 0.00 | 0.20 | 0.20 | 55 | 1012.0 |
| 20260906012547 | 27 | 256 | 3.2 | 9.7 | 0.00 | 0.20 | 0.20 | 56 | 1011.8 |
| 20260906012048 | 27 | 234 | 1.6 | 8.0 | 0.00 | 0.20 | 0.20 | 59 | 1011.7 |
| 20260906011618 | 27 | 336 | 3.2 | 6.4 | 0.00 | 0.20 | 0.20 | 59 | 1011.7 |
| 20260906011048 | 27 | 292 | 3.2 | 6.4 | 0.00 | 0.20 | 0.20 | 60 | 1011.7 |
| 20260906010548 | 27 | 249 | 0.0 | 3.2 | 0.00 | 0.20 | 0.20 | 60 | 1011.8 |
| 20260906010105 | 27 | 0 | 0.0 | 3.2 | 0.00 | 0.20 | 0.20 | 61 | 1011.8 |
| 20260906005548 | 28 | 0 | 0.0 | 3.2 | 0.00 | 0.20 | 0.20 | 59 | 1011.8 |
| 20260906005048 | 28 | 325 | 0.0 | 11.3 | 0.00 | 0.20 | 0.20 | 58 | 1012.0 |
| 20260906004619 | 28 | 0 | 3.2 | 11.3 | 0.00 | 0.20 | 0.20 | 54 | 1012.2 |
| 20260906004047 | 28 | 321 | 6.4 | 11.3 | 0.00 | 0.20 | 0.20 | 53 | 1012.4 |
| 20260906003547 | 28 | 319 | 4.8 | 8.0 | 0.00 | 0.20 | 0.20 | 52 | 1012.4 |
| 20260906003105 | 28 | 304 | 4.8 | 11.3 | 0.00 | 0.20 | 0.20 | 52 | 1012.7 |
| 20260906002548 | 28 | 304 | 4.8 | 11.3 | 0.00 | 0.20 | 0.20 | 54 | 1012.9 |
| 20260906002051 | 28 | 302 | 3.2 | 9.7 | 0.00 | 0.20 | 0.20 | 54 | 1012.9 |
| 20260906001602 | 28 | 282 | 4.8 | 9.7 | 0.00 | 0.20 | 0.20 | 54 | 1012.9 |
| 20260906001050 | 28 | 284 | 4.8 | 9.7 | 0.00 | 0.20 | 0.20 | 54 | 1012.7 |
| 20260906000548 | 28 | 282 | 3.2 | 6.4 | 0.00 | 0.20 | 0.20 | 52 | 1012.4 |
| 20260906000101 | 28 | 281 | 3.2 | 6.4 | 0.00 | 0.20 | 0.20 | 55 | 1012.3 |
| 20260905235549 | 28 | 257 | 0.0 | 6.4 | 0.00 | 0.20 | 0.20 | 53 | 1012.2 |
| 20260905235048 | 29 | 17 | 4.8 | 6.4 | 0.00 | 0.20 | 0.20 | 53 | 1012.1 |
| 20260905234558 | 29 | 26 | 1.6 | 8.0 | 0.00 | 0.20 | 0.20 | 55 | 1012.0 |
| 20260905234047 | 30 | 5 | 3.2 | 9.7 | 0.00 | 0.20 | 0.20 | 54 | 1011.9 |
| 20260905233545 | 30 | 58 | 3.2 | 9.7 | 0.00 | 0.20 | 0.20 | 51 | 1012.0 |
| 20260905233111 | 30 | 104 | 4.8 | 11.3 | 0.00 | 0.20 | 0.20 | 51 | 1011.9 |
| 20260905232547 | 30 | 100 | 4.8 | 11.3 | 0.00 | 0.20 | 0.20 | 50 | 1011.8 |
| 20260905232047 | 30 | 91 | 6.4 | 11.3 | 0.00 | 0.20 | 0.20 | 49 | 1011.9 |
| 20260905231559 | 30 | 84 | 4.8 | 11.3 | 0.00 | 0.20 | 0.20 | 49 | 1011.9 |
| 20260905231049 | 30 | 98 | 4.8 | 14.5 | 0.00 | 0.20 | 0.20 | 50 | 1012.0 |
| 20260905230550 | 30 | 38 | 6.4 | 14.5 | 0.00 | 0.20 | 0.20 | 50 | 1012.2 |
| 20260905230057 | 30 | 350 | 8.0 | 16.1 | 0.00 | 0.20 | 0.20 | 51 | 1012.5 |
| 20260905225549 | 29 | 338 | 8.0 | 16.1 | 0.00 | 0.20 | 0.20 | 51 | 1012.4 |
| 20260905225044 | 29 | 327 | 11.3 | 16.1 | 0.00 | 0.20 | 0.20 | 53 | 1012.6 |
| 20260905224623 | 29 | 317 | 8.0 | 14.5 | 0.00 | 0.20 | 0.20 | 52 | 1012.7 |
| 20260905224047 | 29 | 317 | 9.7 | 14.5 | 0.00 | 0.20 | 0.20 | 51 | 1012.7 |
| 20260905223548 | 29 | 270 | 6.4 | 14.5 | 0.00 | 0.20 | 0.20 | 54 | 1012.6 |
| 20260905223107 | 30 | 267 | 6.4 | 11.3 | 0.00 | 0.20 | 0.20 | 54 | 1012.4 |
| 20260905222548 | 30 | 285 | 6.4 | 11.3 | 0.00 | 0.20 | 0.20 | 52 | 1012.2 |
| 20260905222050 | 30 | 279 | 4.8 | 9.7 | 0.00 | 0.20 | 0.20 | 51 | 1012.1 |
| 20260905221559 | 30 | 290 | 3.2 | 6.4 | 0.00 | 0.20 | 0.20 | 52 | 1012.0 |
| 20260905221049 | 30 | 283 | 1.6 | 4.8 | 0.00 | 0.20 | 0.20 | 54 | 1012.0 |
| 20260905220547 | 30 | 335 | 0.0 | 3.2 | 0.00 | 0.20 | 0.20 | 55 | 1012.2 |
| 20260905220104 | 30 | 0 | 0.0 | 3.2 | 0.00 | 0.20 | 0.20 | 54 | 1012.2 |
| 20260905215551 | 30 | 335 | 0.0 | 3.2 | 0.00 | 0.20 | 0.20 | 51 | 1012.3 |
| 20260905215049 | 30 | 285 | 0.0 | 6.4 | 0.00 | 0.20 | 0.20 | 54 | 1012.2 |
| 20260905214602 | 30 | 282 | 1.6 | 14.5 | 0.00 | 0.20 | 0.20 | 52 | 1012.1 |
| 20260905214047 | 30 | 256 | 0.0 | 14.5 | 0.00 | 0.20 | 0.20 | 53 | 1012.1 |
| 20260905213548 | 30 | 97 | 6.4 | 14.5 | 0.00 | 0.20 | 0.20 | 56 | 1012.1 |
| 20260905213102 | 29 | 63 | 6.4 | 11.3 | 0.00 | 0.20 | 0.20 | 57 | 1012.1 |
| 20260905212550 | 28 | 88 | 3.2 | 6.4 | 0.00 | 0.20 | 0.20 | 58 | 1012.3 |
| 20260905212048 | 28 | 0 | 1.6 | 12.9 | 0.00 | 0.20 | 0.20 | 59 | 1012.3 |
| 20260905211557 | 28 | 0 | 3.2 | 12.9 | 0.00 | 0.20 | 0.20 | 60 | 1012.4 |
| 20260905211048 | 28 | 137 | 6.4 | 12.9 | 0.00 | 0.20 | 0.20 | 61 | 1012.6 |
| 20260905210547 | 28 | 104 | 4.8 | 12.9 | 0.00 | 0.20 | 0.20 | 62 | 1012.4 |
| 20260905210105 | 28 | 76 | 4.8 | 12.9 | 0.00 | 0.20 | 0.20 | 63 | 1012.4 |